Wind_Speed
12 13 13 13 13 13 12 12 12 11 11 11 11 11 10 10 10 10 9 8 8 7 6 7 6 5 5 6 6 6 6 6 7 7 7 8 8 9 9 10 10 11 12 12
13 13 13 14 14 14 13 12 12 13 13 13 13 12 11 11 11 11 10 9 8 8 7 7 7 7 7 7 7 7 7 8 9 9 9 9 9 10 11 11 11 12 13 13
14 13 14 14 15 15 14 14 13 13 13 14 14 13 11 12 12 12 11 10 9 9 7 7 7 7 8 8 9 9 9 10 10 10 10 10 11 11 12 12 12 13 14 13
14 14 14 15 14 14 14 14 14 14 14 13 14 13 12 12 12 13 12 11 11 10 9 8 8 8 9 9 10 10 10 11 11 11 11 11 12 12 12 12 13 13 14 14
14 14 15 14 14 14 14 14 14 14 15 14 14 14 12 12 13 13 12 12 12 11 11 11 10 10 9 10 10 11 11 12 12 12 12 13 13 13 13 13 13 13 14 14
14 14 15 15 15 15 15 15 15 15 15 14 13 14 13 13 13 13 13 13 13 13 12 12 11 11 11 12 12 12 11 12 13 13 14 14 13 14 14 14 15 15 15 15
15 15 15 15 16 15 15 15 16 16 16 15 14 14 13 13 14 14 13 13 14 14 14 13 13 12 12 13 13 13 12 13 13 14 14 14 14 15 15 16 16 16 15 14
16 15 15 16 16 16 16 16 17 17 16 15 15 15 13 14 14 14 14 14 15 14 14 14 14 14 14 14 14 14 14 14 14 14 15 15 15 15 16 16 16 15 15 15
16 15 15 16 16 17 17 17 17 18 17 16 16 15 14 14 14 14 15 15 14 14 14 14 14 14 14 14 15 14 15 15 15 15 16 16 16 15 16 15 15 15 15 16
17 16 15 15 16 17 17 18 18 18 18 18 16 15 14 13 14 14 14 14 14 14 14 14 14 15 15 15 15 15 16 15 15 15 16 16 16 15 15 15 15 15 15 16
17 17 16 16 17 17 18 18 19 20 20 19 18 14 13 14 14 14 14 14 14 15 15 15 15 15 15 16 15 15 15 15 16 16 17 16 16 15 15 16 16 17 17 17
18 18 18 17 18 18 19 19 19 20 20 21 20 16 14 15 15 15 15 15 15 16 16 16 16 16 16 16 16 17 17 17 17 17 17 16 16 16 16 17 17 18 18 18
18 19 19 18 19 19 20 20 20 20 21 22 22 18 17 17 17 17 17 16 16 17 16 16 17 17 17 18 18 18 18 18 18 18 17 17 17 17 17 18 18 18 19 19
20 20 20 19 19 19 20 20 20 21 21 22 22 20 19 19 19 19 19 18 17 17 17 17 18 18 18 18 19 18 18 18 18 18 18 18 18 19 19 19 19 19 20 20
20 21 21 21 21 21 21 22 22 22 22 22 21 22 20 21 21 21 20 19 19 19 18 18 19 19 19 19 18 19 19 19 19 19 19 19 19 20 20 21 21 21 20 21
22 22 22 22 22 23 23 23 23 23 23 22 22 21 20 22 23 22 21 21 20 20 20 19 20 20 21 20 19 19 19 19 20 20 20 20 20 20 20 21 21 21 21 21
24 24 24 23 23 24 24 22 24 25 24 24 23 21 21 23 23 23 23 22 21 22 22 22 22 22 21 20 20 20 20 21 21 20 20 21 22 22 22 22 21 22 22 22
25 25 25 24 24 26 24 24 25 25 25 25 25 23 23 23 24 25 25 24 23 23 23 23 23 23 22 22 21 22 22 22 21 21 22 22 23 22 22 22 22 22 22 22
27 27 27 26 26 26 25 25 25 26 26 26 25 24 24 24 25 25 26 26 25 25 25 24 24 24 24 24 23 23 23 23 23 23 22 22 23 23 23 23 23 23 23 23
28 28 28 28 28 27 25 25 26 27 27 26 26 26 25 25 26 25 26 27 27 26 26 26 26 25 25 25 25 25 25 25 24 24 23 23 23 24 23 24 24 25 25 25
28 29 29 29 30 29 27 26 27 28 27 26 26 26 26 26 26 26 26 27 28 28 28 27 26 26 26 26 26 26 27 26 26 25 25 24 25 25 25 25 25 26 26 26
29 30 30 31 31 30 28 28 28 28 27 27 27 27 26 26 26 26 27 27 28 29 29 29 28 28 28 28 28 27 28 28 27 27 26 26 26 26 27 27 27 27 27 27
30 30 31 32 32 31 29 29 29 29 29 28 28 28 27 26 26 26 27 27 28 29 30 30 29 29 29 29 29 28 28 28 28 27 26 27 27 27 28 27 27 27 28 28
31 31 32 33 32 31 31 30 29 30 30 29 29 29 29 29 28 28 28 29 29 29 30 30 30 30 30 29 29 29 28 28 28 28 28 27 28 28 28 29 29 29 29 29
31 32 33 33 32 32 32 31 31 31 31 30 30 30 29 29 30 30 30 30 30 30 31 31 31 32 31 30 30 30 30 29 29 29 29 29 29 28 29 29 30 30 30 30
31 33 34 33 32 33 33 32 32 32 31 30 30 31 31 31 31 31 31 31 31 31 31 31 32 32 33 32 32 32 31 30 30 30 30 30 30 30 30 30 30 31 31 32
Wind_Direction
266 263 262 263 264 261 262 258 253 253 252 251 250 250 247 248 251 254 255 254 254 260 262 260 259 258 255 257 260 267 274 278 281 285 290 295 298 300 299 297 298 298 297 294
264 263 261 261 264 263 259 259 258 255 254 254 254 253 248 247 249 251 253 254 254 255 256 251 249 253 259 261 264 268 273 277 282 285 291 296 297 299 298 297 297 299 298 295
262 262 262 260 259 259 259 257 257 257 256 255 255 254 251 250 251 252 254 255 255 256 255 251 250 257 262 264 266 269 276 280 283 285 288 291 294 297 296 295 296 299 300 298
260 258 261 261 260 260 260 259 258 257 256 255 256 256 250 251 252 252 252 255 255 252 249 247 253 258 263 264 265 270 274 279 285 286 289 290 292 293 294 295 296 298 301 301
262 260 259 259 259 260 260 259 257 259 258 255 255 258 253 253 255 255 254 254 254 252 250 248 254 259 265 265 264 270 274 278 282 285 287 290 291 292 294 296 296 297 298 299
263 261 259 258 259 259 261 259 258 258 258 255 256 260 258 258 257 257 257 255 253 253 252 252 257 259 263 268 269 270 275 280 283 285 286 288 290 292 295 296 295 296 297 297
264 263 262 260 260 258 258 259 259 259 259 260 260 261 262 261 259 257 258 256 256 255 254 255 259 261 265 270 273 272 274 280 283 287 289 290 290 292 294 294 295 296 297 297
265 264 263 262 260 257 257 257 260 262 263 264 261 261 259 262 263 260 259 257 257 255 255 257 257 261 266 271 275 275 274 278 282 287 290 291 292 293 294 294 294 296 296 295
264 263 262 261 259 256 254 255 259 260 262 265 263 262 261 263 264 264 262 259 257 254 253 255 257 261 265 270 274 277 277 277 280 284 287 290 291 291 291 292 293 294 294 294
263 261 260 258 255 254 255 253 255 259 262 263 264 264 264 262 260 260 261 257 257 255 254 254 257 260 264 268 273 275 278 280 282 282 283 287 288 289 289 292 294 296 298 297
262 260 258 256 253 255 255 255 258 261 263 263 262 264 264 260 258 258 257 256 258 257 256 255 258 262 267 270 273 276 278 282 283 284 287 286 284 284 288 292 293 294 297 298
261 260 258 256 254 254 256 258 259 261 263 263 263 261 261 260 261 259 257 258 257 255 256 258 261 264 267 271 276 277 278 281 283 287 289 286 283 284 286 289 292 293 295 297
258 258 257 254 252 253 255 257 260 263 265 264 264 264 261 262 262 261 260 259 256 256 256 260 263 266 267 269 274 276 278 280 280 283 284 286 286 286 288 290 293 296 297 298
258 256 256 256 255 255 256 257 259 263 267 266 265 264 261 262 262 262 261 258 257 256 256 259 261 263 266 269 272 275 277 280 281 283 283 283 284 285 286 288 292 294 295 297
257 258 258 257 255 256 256 257 260 263 266 268 268 265 263 262 262 262 260 257 258 257 257 259 261 263 266 268 272 275 277 281 285 283 282 281 283 284 285 287 289 291 292 294
256 259 260 259 257 256 255 256 259 263 266 268 269 268 267 263 261 261 259 256 257 258 261 262 264 265 266 269 273 276 278 282 284 283 280 280 282 283 283 285 288 290 293 294
257 258 260 261 259 256 256 257 260 264 267 269 269 268 267 263 259 259 259 258 257 259 261 263 266 268 268 270 274 278 278 281 283 281 281 280 280 281 281 282 286 289 290 292
260 260 260 261 259 257 261 260 261 264 266 268 270 270 266 265 263 261 259 260 261 262 263 263 265 267 268 270 273 275 276 279 280 279 280 281 281 281 281 281 284 287 288 290
260 262 262 262 261 261 261 261 262 263 265 266 269 269 266 264 264 261 260 260 261 262 263 263 263 266 267 268 272 274 276 278 279 278 279 281 282 282 281 282 283 287 288 289
260 261 261 262 263 264 264 262 262 264 265 264 267 269 267 266 266 264 261 260 260 260 261 262 263 264 266 267 270 274 276 277 277 278 279 281 282 282 281 282 284 286 287 288
261 259 259 261 263 265 267 265 265 265 267 267 268 270 270 268 268 265 263 262 261 260 260 261 262 264 265 267 270 273 274 275 275 277 279 280 282 282 282 283 285 286 287 288
260 260 260 260 262 263 265 267 266 266 266 266 267 269 270 269 268 267 266 265 265 263 262 262 262 264 265 267 270 272 273 273 274 275 277 278 280 282 283 284 286 287 287 288
260 261 262 262 263 264 265 266 266 266 266 266 267 267 269 269 268 267 267 267 266 266 265 263 264 264 265 267 269 271 271 271 272 274 275 276 279 281 281 283 285 286 287 288
260 261 262 262 262 264 264 266 267 267 267 267 268 268 268 268 269 268 268 268 267 266 265 264 264 264 266 267 268 270 269 269 271 273 274 275 277 279 281 282 283 286 287 288
259 260 262 263 264 264 264 264 265 266 266 266 267 267 266 267 268 268 268 267 267 267 266 264 264 263 263 266 268 269 268 268 270 272 273 274 277 279 281 282 284 286 287 288
260 261 262 262 263 262 262 262 263 264 265 265 265 266 267 267 268 269 268 268 267 266 265 263 263 262 263 264 265 266 266 266 268 271 273 274 275 278 280 282 284 286 287 288
Height
5833 5834 5834 5834 5834 5835 5836 5837 5837 5838 5838 5839 5839 5840 5841 5841 5841 5841 5841 5841 5842 5842 5842 5842 5842 5842 5842 5842 5842 5842 5842 5842 5841 5841 5840 5839 5839 5838 5837 5836 5835 5835 5834 5833
5830 5831 5831 5831 5831 5832 5833 5834 5834 5835 5836 5836 5836 5837 5838 5838 5838 5839 5839 5839 5840 5840 5839 5840 5840 5840 5840 5840 5840 5840 5840 5840 5839 5839 5838 5837 5836 5835 5834 5833 5832 5832 5831 5830
5827 5828 5827 5828 5829 5829 5830 5831 5831 5832 5833 5833 5834 5834 5835 5836 5835 5836 5837 5837 5837 5837 5837 5838 5838 5838 5838 5838 5838 5838 5837 5837 5837 5836 5835 5835 5834 5832 5831 5830 5829 5828 5827 5826
5823 5824 5824 5824 5825 5826 5826 5827 5828 5828 5829 5829 5831 5831 5833 5833 5833 5833 5834 5834 5835 5835 5835 5835 5835 5835 5836 5836 5835 5835 5835 5835 5834 5834 5833 5832 5831 5830 5828 5827 5826 5825 5824 5823
5819 5820 5820 5821 5822 5822 5823 5823 5824 5825 5825 5826 5827 5827 5830 5830 5830 5831 5831 5832 5832 5833 5833 5833 5833 5833 5833 5833 5833 5833 5833 5832 5831 5831 5830 5829 5828 5827 5825 5824 5823 5821 5820 5819
5816 5816 5816 5817 5818 5818 5819 5820 5820 5821 5821 5823 5824 5824 5826 5826 5827 5827 5828 5828 5829 5829 5830 5830 5830 5830 5830 5830 5830 5830 5829 5829 5828 5827 5826 5825 5824 5823 5822 5821 5819 5818 5817 5815
5812 5812 5813 5814 5814 5815 5816 5817 5817 5817 5818 5819 5820 5820 5823 5823 5823 5824 5825 5825 5825 5826 5826 5827 5827 5827 5827 5827 5827 5826 5826 5825 5825 5824 5823 5822 5820 5819 5818 5817 5815 5814 5813 5811
5808 5809 5809 5809 5810 5811 5812 5813 5814 5814 5815 5816 5816 5816 5819 5819 5820 5820 5821 5821 5821 5822 5823 5823 5824 5824 5824 5824 5823 5823 5822 5822 5821 5820 5819 5818 5817 5815 5814 5813 5811 5810 5809 5807
5804 5805 5805 5805 5806 5807 5808 5808 5810 5810 5810 5811 5812 5814 5815 5816 5816 5816 5817 5817 5817 5818 5819 5820 5820 5820 5820 5820 5820 5819 5819 5818 5817 5816 5815 5814 5813 5812 5810 5809 5808 5806 5805 5804
5799 5800 5801 5801 5802 5803 5804 5805 5806 5806 5806 5806 5808 5809 5811 5812 5812 5812 5812 5813 5814 5814 5815 5816 5816 5816 5816 5816 5816 5815 5814 5813 5813 5812 5811 5810 5808 5807 5806 5805 5804 5802 5801 5799
5795 5796 5797 5797 5798 5799 5800 5801 5801 5801 5802 5803 5804 5808 5807 5807 5808 5808 5809 5809 5810 5810 5811 5812 5812 5812 5812 5811 5811 5811 5810 5809 5808 5807 5806 5805 5804 5803 5802 5801 5800 5798 5797 5795
5790 5791 5792 5793 5794 5794 5795 5796 5797 5798 5798 5798 5799 5804 5803 5803 5803 5804 5804 5805 5805 5806 5807 5807 5807 5807 5807 5807 5806 5806 5805 5804 5803 5802 5801 5800 5799 5798 5797 5796 5795 5793 5792 5790
5785 5786 5787 5788 5791 5791 5790 5791 5792 5792 5793 5793 5794 5799 5798 5798 5799 5799 5800 5800 5801 5801 5802 5802 5802 5802 5802 5802 5802 5801 5800 5799 5798 5797 5796 5795 5794 5793 5793 5792 5790 5789 5787 5785
5779 5780 5782 5783 5784 5785 5785 5786 5787 5787 5787 5788 5789 5792 5793 5793 5793 5794 5794 5795 5796 5796 5797 5797 5797 5797 5797 5797 5797 5796 5795 5794 5793 5792 5791 5790 5789 5788 5787 5786 5785 5784 5782 5781
5774 5775 5776 5777 5778 5779 5780 5781 5781 5782 5782 5782 5784 5785 5787 5787 5787 5788 5788 5789 5790 5791 5792 5792 5792 5792 5792 5791 5791 5790 5790 5789 5787 5786 5785 5784 5784 5783 5782 5781 5780 5779 5777 5775
5768 5769 5770 5771 5771 5772 5773 5774 5775 5776 5776 5777 5778 5779 5780 5780 5780 5781 5782 5783 5784 5785 5785 5786 5786 5786 5786 5785 5785 5784 5784 5783 5782 5780 5779 5779 5778 5777 5776 5775 5774 5773 5771 5770
5762 5763 5763 5765 5765 5765 5767 5769 5770 5770 5770 5771 5771 5774 5773 5773 5773 5774 5775 5776 5777 5778 5779 5779 5779 5780 5780 5779 5779 5778 5778 5777 5776 5775 5774 5773 5772 5771 5770 5770 5769 5767 5766 5764
5756 5756 5757 5757 5759 5758 5764 5763 5763 5763 5764 5764 5765 5766 5766 5766 5767 5767 5768 5769 5770 5771 5772 5772 5772 5773 5773 5773 5773 5772 5772 5771 5770 5769 5768 5767 5766 5765 5764 5763 5763 5761 5760 5758
5749 5749 5749 5750 5750 5752 5756 5756 5756 5756 5757 5758 5758 5758 5759 5759 5759 5760 5761 5762 5763 5763 5764 5765 5765 5766 5766 5766 5766 5765 5765 5764 5763 5763 5762 5761 5760 5759 5758 5757 5756 5755 5754 5752
5741 5742 5743 5743 5743 5744 5750 5749 5748 5750 5750 5751 5751 5751 5752 5752 5752 5754 5754 5754 5755 5755 5756 5757 5758 5758 5759 5759 5759 5758 5758 5757 5757 5756 5756 5755 5754 5753 5752 5751 5750 5749 5747 5746
5734 5734 5735 5735 5735 5737 5741 5741 5742 5743 5744 5744 5744 5744 5744 5744 5745 5745 5745 5746 5746 5747 5748 5749 5750 5751 5751 5751 5751 5751 5751 5750 5750 5750 5749 5748 5747 5746 5745 5744 5743 5742 5740 5739
5726 5726 5727 5728 5728 5732 5733 5733 5734 5735 5735 5735 5735 5736 5736 5736 5736 5737 5738 5738 5738 5739 5740 5741 5742 5743 5743 5744 5744 5743 5743 5743 5743 5742 5742 5741 5740 5739 5738 5737 5736 5734 5733 5731
5717 5719 5719 5721 5723 5723 5724 5724 5725 5726 5726 5727 5727 5728 5728 5728 5729 5729 5730 5730 5730 5731 5731 5732 5733 5734 5735 5735 5735 5735 5735 5735 5734 5734 5734 5733 5733 5732 5731 5729 5728 5727 5725 5724
5709 5710 5710 5711 5713 5714 5715 5716 5717 5718 5718 5718 5719 5720 5720 5720 5720 5721 5721 5722 5722 5723 5723 5724 5724 5725 5726 5726 5727 5727 5727 5726 5726 5726 5726 5725 5725 5724 5722 5721 5720 5719 5717 5716
5700 5701 5701 5702 5704 5705 5706 5707 5708 5708 5709 5709 5710 5711 5711 5711 5712 5712 5712 5713 5713 5714 5714 5715 5715 5716 5717 5717 5718 5718 5718 5718 5718 5718 5717 5717 5716 5715 5714 5713 5712 5710 5709 5707
5691 5692 5692 5694 5695 5695 5697 5697 5698 5699 5700 5700 5701 5702 5702 5703 5703 5703 5703 5704 5704 5705 5705 5705 5706 5707 5707 5708 5708 5709 5709 5709 5709 5709 5708 5708 5707 5707 5706 5705 5703 5701 5700 5698